| time (UTC) | temp C | wind direction | speed KPH | gust KPH | rain 1hr cm | rain 24hr cm | rain mn cm | humidity % | barometer mb |
| 20260507092905 | 12 | 317 | 0.0 | 3.2 | 0.00 | 0.00 | 0.00 | 70 | 1014.6 |
| 20260507091405 | 12 | 352 | 0.0 | 11.3 | 0.00 | 0.00 | 0.00 | 70 | 1014.4 |
| 20260507085905 | 11 | 30 | 1.6 | 4.8 | 0.00 | 0.00 | 0.00 | 72 | 1014.3 |
| 20260507084405 | 11 | 2 | 0.0 | 1.6 | 0.00 | 0.00 | 0.00 | 73 | 1014.3 |
| 20260507082905 | 11 | 315 | 0.0 | 0.0 | 0.00 | 0.00 | 0.00 | 75 | 1014.2 |
| 20260507081405 | 10 | 275 | 0.0 | 4.8 | 0.00 | 0.00 | 0.00 | 76 | 1014.1 |
| 20260507075905 | 10 | 337 | 3.2 | 4.8 | 0.00 | 0.00 | 0.00 | 77 | 1013.9 |
| 20260507074405 | 10 | 329 | 3.2 | 3.2 | 0.00 | 0.00 | 0.00 | 76 | 1013.8 |
| 20260507072905 | 10 | 30 | 0.0 | 0.0 | 0.00 | 0.00 | 0.00 | 77 | 1013.7 |
| 20260507071405 | 10 | 30 | 0.0 | 0.0 | 0.00 | 0.00 | 0.00 | 78 | 1013.6 |
| 20260507065905 | 10 | 30 | 0.0 | 0.0 | 0.00 | 0.00 | 0.00 | 78 | 1013.5 |
| 20260507064405 | 10 | 30 | 0.0 | 0.0 | 0.00 | 0.00 | 0.00 | 79 | 1013.4 |
| 20260507062905 | 9 | 30 | 0.0 | 3.2 | 0.00 | 0.00 | 0.00 | 79 | 1013.2 |
| 20260507061405 | 9 | 313 | 0.0 | 3.2 | 0.00 | 0.00 | 0.00 | 80 | 1013.1 |
| 20260507055905 | 9 | 331 | 4.8 | 4.8 | 0.00 | 0.00 | 0.00 | 80 | 1013.0 |
| 20260507054405 | 8 | 344 | 0.0 | 0.0 | 0.00 | 0.00 | 0.00 | 81 | 1012.8 |
| 20260507052905 | 8 | 351 | 3.2 | 6.4 | 0.00 | 0.00 | 0.00 | 82 | 1012.6 |
| 20260507051405 | 8 | 12 | 0.0 | 8.0 | 0.00 | 0.00 | 0.00 | 84 | 1012.2 |
| 20260507045905 | 8 | 331 | 3.2 | 8.0 | 0.00 | 0.00 | 0.00 | 83 | 1011.9 |
| 20260507044405 | 8 | 22 | 1.6 | 8.0 | 0.00 | 0.00 | 0.00 | 84 | 1011.8 |
| 20260507042905 | 8 | 9 | 4.8 | 6.4 | 0.00 | 0.00 | 0.00 | 85 | 1011.7 |
| 20260507041405 | 8 | 333 | 1.6 | 6.4 | 0.00 | 0.00 | 0.00 | 85 | 1011.6 |
| 20260507035905 | 8 | 8 | 0.0 | 6.4 | 0.00 | 0.00 | 0.00 | 84 | 1011.5 |
| 20260507034405 | 8 | 312 | 0.0 | 0.0 | 0.00 | 0.00 | 0.00 | 84 | 1011.3 |
| 20260507032905 | 9 | 305 | 0.0 | 0.0 | 0.00 | 0.00 | 0.00 | 83 | 1011.2 |
| 20260507031405 | 9 | 305 | 0.0 | 0.0 | 0.00 | 0.00 | 0.00 | 83 | 1011.1 |
| 20260507025905 | 9 | 305 | 0.0 | 0.0 | 0.00 | 0.00 | 0.00 | 83 | 1011.0 |
| 20260507024405 | 9 | 305 | 0.0 | 0.0 | 0.00 | 0.00 | 0.00 | 83 | 1010.9 |
| 20260507022905 | 9 | 282 | 0.0 | 3.2 | 0.00 | 0.00 | 0.00 | 83 | 1010.8 |
| 20260507021405 | 9 | 324 | 0.0 | 3.2 | 0.00 | 0.00 | 0.00 | 83 | 1010.8 |
| 20260507015905 | 9 | 337 | 0.0 | 3.2 | 0.00 | 0.00 | 0.00 | 83 | 1010.8 |
| 20260507014405 | 9 | 284 | 0.0 | 1.6 | 0.00 | 0.00 | 0.00 | 82 | 1010.7 |
| 20260507012906 | 9 | 357 | 3.2 | 4.8 | 0.00 | 0.00 | 0.00 | 82 | 1010.5 |
| 20260507011405 | 9 | 344 | 1.6 | 3.2 | 0.00 | 0.00 | 0.00 | 81 | 1010.5 |
| 20260507005905 | 9 | 337 | 0.0 | 0.0 | 0.00 | 0.00 | 0.00 | 81 | 1010.5 |
| 20260507004406 | 9 | 337 | 0.0 | 0.0 | 0.00 | 0.00 | 0.00 | 81 | 1010.3 |
| 20260507002906 | 9 | 337 | 0.0 | 0.0 | 0.00 | 0.13 | 0.00 | 81 | 1010.2 |
| 20260507001406 | 9 | 320 | 0.0 | 0.0 | 0.00 | 0.13 | 0.00 | 81 | 1010.2 |
| 20260506235906 | 9 | 320 | 0.0 | 0.0 | 0.00 | 0.13 | 0.00 | 81 | 1010.1 |
| 20260506234406 | 9 | 320 | 0.0 | 0.0 | 0.00 | 0.13 | 0.00 | 80 | 1010.2 |
| 20260506232906 | 9 | 320 | 0.0 | 0.0 | 0.00 | 0.25 | 0.00 | 80 | 1010.2 |
| 20260506231406 | 10 | 320 | 0.0 | 0.0 | 0.00 | 0.25 | 0.00 | 80 | 1010.1 |
| 20260506225906 | 9 | 320 | 0.0 | 0.0 | 0.00 | 0.25 | 0.00 | 80 | 1010.2 |
| 20260506224406 | 9 | 320 | 0.0 | 4.8 | 0.00 | 0.25 | 0.00 | 80 | 1010.1 |
| 20260506222906 | 9 | 315 | 0.0 | 3.2 | 0.00 | 0.25 | 0.00 | 80 | 1010.0 |
| 20260506221406 | 9 | 306 | 0.0 | 0.0 | 0.00 | 0.25 | 0.00 | 81 | 1009.8 |
| 20260506215906 | 9 | 300 | 0.0 | 6.4 | 0.00 | 0.25 | 0.00 | 80 | 1009.7 |
| 20260506214406 | 9 | 322 | 0.0 | 3.2 | 0.00 | 0.25 | 0.00 | 80 | 1009.5 |
| 20260506212906 | 9 | 54 | 0.0 | 0.0 | 0.00 | 0.30 | 0.00 | 81 | 1009.4 |
| 20260506211406 | 9 | 317 | 0.0 | 4.8 | 0.00 | 0.30 | 0.00 | 81 | 1009.3 |
| 20260506205906 | 10 | 111 | 0.0 | 3.2 | 0.00 | 0.30 | 0.00 | 81 | 1009.2 |
| 20260506204406 | 10 | 46 | 0.0 | 0.0 | 0.00 | 0.30 | 0.00 | 81 | 1009.2 |
| 20260506202906 | 10 | 21 | 1.6 | 3.2 | 0.00 | 0.74 | 0.00 | 82 | 1009.2 |
| 20260506201406 | 10 | 74 | 0.0 | 0.0 | 0.00 | 0.74 | 0.00 | 82 | 1009.0 |
| 20260506195906 | 10 | 12 | 1.6 | 6.4 | 0.00 | 0.74 | 0.00 | 82 | 1008.9 |
| 20260506194406 | 10 | 331 | 4.8 | 6.4 | 0.00 | 0.74 | 0.00 | 82 | 1008.7 |
| 20260506192906 | 10 | 23 | 0.0 | 4.8 | 0.00 | 0.81 | 0.00 | 82 | 1008.6 |
| 20260506191406 | 10 | 329 | 0.0 | 8.0 | 0.00 | 0.81 | 0.00 | 82 | 1008.3 |
| 20260506185906 | 10 | 28 | 0.0 | 8.0 | 0.00 | 0.81 | 0.00 | 82 | 1008.1 |
| 20260506184406 | 10 | 11 | 4.8 | 12.9 | 0.00 | 0.81 | 0.00 | 81 | 1007.9 |
| 20260506182906 | 10 | 45 | 1.6 | 9.7 | 0.00 | 0.84 | 0.00 | 81 | 1007.8 |
| 20260506181406 | 10 | 343 | 6.4 | 11.3 | 0.00 | 0.84 | 0.00 | 80 | 1007.7 |
| 20260506175906 | 10 | 358 | 4.8 | 14.5 | 0.00 | 0.84 | 0.00 | 80 | 1007.6 |
| 20260506174406 | 11 | 11 | 6.4 | 12.9 | 0.00 | 0.84 | 0.00 | 100 | 1007.4 |
| 20260506172906 | 11 | 326 | 3.2 | 11.3 | 0.00 | 0.84 | 0.00 | 79 | 1007.4 |
| 20260506171406 | 11 | 26 | 0.0 | 8.0 | 0.00 | 0.84 | 0.00 | 79 | 1007.2 |
| 20260506165906 | 11 | 337 | 0.0 | 8.0 | 0.00 | 0.84 | 0.00 | 82 | 1007.1 |
| 20260506164406 | 11 | 327 | 4.8 | 9.7 | 0.00 | 0.84 | 0.00 | 82 | 1007.2 |
| 20260506162906 | 11 | 1 | 3.2 | 8.0 | 0.00 | 0.86 | 0.00 | 82 | 1007.3 |
| 20260506161406 | 11 | 330 | 9.7 | 11.3 | 0.00 | 0.86 | 0.00 | 80 | 1007.2 |
| 20260506155906 | 11 | 338 | 4.8 | 12.9 | 0.00 | 0.86 | 0.00 | 80 | 1007.1 |
| 20260506154406 | 12 | 310 | 0.0 | 3.2 | 0.00 | 0.86 | 0.00 | 79 | 1007.1 |
| 20260506152906 | 12 | 316 | 1.6 | 8.0 | 0.00 | 0.89 | 0.00 | 79 | 1007.0 |
| 20260506151406 | 12 | 8 | 4.8 | 11.3 | 0.00 | 0.89 | 0.00 | 79 | 1006.8 |
| 20260506145906 | 12 | 355 | 1.6 | 8.0 | 0.00 | 0.89 | 0.00 | 79 | 1006.7 |
| 20260506144406 | 12 | 347 | 3.2 | 9.7 | 0.00 | 0.89 | 0.00 | 79 | 1006.5 |
| 20260506142906 | 12 | 1 | 6.4 | 11.3 | 0.00 | 0.91 | 0.00 | 78 | 1006.4 |
| 20260506141406 | 12 | 15 | 3.2 | 9.7 | 0.00 | 0.91 | 0.00 | 78 | 1006.4 |
| 20260506135906 | 12 | 327 | 6.4 | 9.7 | 0.00 | 0.91 | 0.00 | 78 | 1006.4 |
| 20260506134406 | 12 | 348 | 4.8 | 8.0 | 0.00 | 0.91 | 0.00 | 77 | 1006.4 |
| 20260506132906 | 12 | 333 | 1.6 | 8.0 | 0.00 | 1.04 | 0.00 | 78 | 1006.4 |
| 20260506131406 | 13 | 358 | 4.8 | 11.3 | 0.00 | 1.04 | 0.00 | 76 | 1006.2 |
| 20260506125906 | 13 | 319 | 8.0 | 9.7 | 0.00 | 1.04 | 0.00 | 74 | 1006.1 |
| 20260506124406 | 13 | 340 | 4.8 | 11.3 | 0.00 | 1.04 | 0.00 | 75 | 1005.9 |
| 20260506122906 | 14 | 307 | 6.4 | 8.0 | 0.00 | 1.07 | 0.00 | 74 | 1005.8 |
| 20260506121406 | 13 | 327 | 4.8 | 6.4 | 0.00 | 1.07 | 0.00 | 75 | 1005.8 |
| 20260506115906 | 13 | 11 | 6.4 | 9.7 | 0.00 | 1.07 | 0.00 | 76 | 1005.7 |
| 20260506114406 | 13 | 7 | 6.4 | 9.7 | 0.00 | 1.07 | 0.00 | 76 | 1005.5 |
| 20260506112906 | 14 | 40 | 6.4 | 6.4 | 0.00 | 1.07 | 0.00 | 77 | 1005.5 |
| 20260506111406 | 15 | 293 | 0.0 | 9.7 | 0.00 | 1.07 | 0.00 | 76 | 1005.5 |
| 20260506105906 | 14 | 345 | 8.0 | 8.0 | 0.00 | 1.07 | 1.07 | 76 | 1005.5 |
| 20260506104406 | 14 | 323 | 3.2 | 8.0 | 0.00 | 1.07 | 1.07 | 76 | 1005.4 |
| 20260506102906 | 15 | 291 | 6.4 | 9.7 | 0.00 | 1.07 | 1.07 | 74 | 1005.4 |
| 20260506101406 | 13 | 305 | 0.0 | 4.8 | 0.00 | 1.07 | 1.07 | 80 | 1005.4 |
| 20260506095907 | 14 | 288 | 0.0 | 3.2 | 0.00 | 1.07 | 1.07 | 79 | 1005.2 |
| 20260506094406 | 13 | 320 | 3.2 | 4.8 | 0.00 | 1.07 | 1.07 | 82 | 1005.1 |